Regional Weather Roundup
Issued by NWS

Home | Current Version | Previous Version | Graphics & Text | Print | Product List | Glossary On
Versions: 1 2 3 4 5 6 7 8 9 10 11 12 13 14 15 16 17 18 19 20 21 22 23 24 25 26 27 28 29 30 31 32 33 34 35 36 37 38 39 40 41 42 43 44 45 46 47 48 49 50
000
ASUS45 KBOU 300707
RWRCO

WEATHER ROUNDUP FOR COLORADO
NATIONAL WEATHER SERVICE DENVER/BOULDER CO
100 AM MDT TUE SEP 30 2014

NOTE: "FAIR" INDICATES FEW OR NO CLOUDS BELOW 12000 FEET WITH NO
SIGNIFICANT WEATHER AND/OR OBSTRUCTIONS TO VISIBILITY.

COZ001>005-013-030-031-300800-
...NORTHWEST COLORADO...

CITY           SKY/WX    TMP DP  RH WIND       PRES   REMARKS
CRAIG          MOCLDY    45  38  76 SW16G23   30.03F
HAYDEN         CLOUDY    43  36  75 W7        30.04S
MEEKER         NOT AVBL
MOUNT WERNER   NOT AVBL
STEAMBOAT SPGS CLOUDY    41  39  93 CALM      30.04F
WALDEN         CLOUDY    36  32  87 SW15      30.01F
$$

COZ006>008-011-300800-
...WEST CENTRAL VALLEYS...

CITY           SKY/WX    TMP DP  RH WIND       PRES   REMARKS
GRAND JUNCTION PTCLDY    46  43  89 SE8       30.06F
MONTROSE       PTCLDY    40  40 100 S6        30.12S
EAGLE          CLOUDY    43  41  93 E6        30.10R
RIFLE          CLOUDY    47  44  90 W3        30.07F
DELTA          LGT RAIN  46  43  91 CALM      30.10S
NUCLA          PTCLDY    45  41  87 E9        30.13S
$$

COZ017>023-064>068-300800-
...SOUTHWEST COLORADO...

CITY           SKY/WX    TMP DP  RH WIND       PRES   REMARKS
DURANGO        CLEAR     43  38  82 N6        30.11S
CORTEZ         CLEAR     43  40  89 NE7       30.09F
PAGOSA SPRINGS CLEAR     37  37 100 CALM      30.14F
TELLURIDE      NOT AVBL
WOLF CREEK PAS FOG       27  27 100 SW16      30.24S VSB 1/4 WCI  14
$$

COZ009-010-012-014-032>034-037-058>063-300800-
...CENTRAL COLORADO...

CITY           SKY/WX    TMP DP  RH WIND       PRES   REMARKS
ASPEN          CLOUDY    39  37  92 CALM      30.10F
BUENA VISTA    MOCLDY    44  29  56 W10       30.04F
COPPER MTN     CLOUDY    32  28  86 W20G29    30.15F WCI  20
BERTHOUD PASS  LGT SNOW  21  19  93 W43G53    30.06F WCI   0
COTTONWOOD PAS MOCLDY    41  28  60 W15G35    30.08F
GUNNISON       MOCLDY    39  34  81 N5        30.14F
KREMMLING      DRIZZLE   41  34  75 W9        30.06S
LEADVILLE      CLOUDY    34  27  75 N10       30.11F WCI  26
SALIDA         MOCLDY    48  32  53 SW18G28   30.09F
SUNLIGHT       CLOUDY    34  32  93 CALM      30.19F FOG
WILKERSON PASS NOT AVBL
$$

COZ069>075-300800-
...SAN LUIS VALLEY/SANGRE DE CRISTO MOUNTAINS...

CITY           SKY/WX    TMP DP  RH WIND       PRES   REMARKS
ALAMOSA        CLOUDY    41  35  79 NE3       30.08F
LA VETA PASS   MOCLDY    34  30  86 S12G22    30.12F WCI  25
SAGUACHE       MOCLDY    41  32  70 CALM      30.09F
$$

COZ035-036-038>040-300800-
...NORTHERN COLORADO FRONT RANGE...

CITY           SKY/WX    TMP DP  RH WIND       PRES   REMARKS
DENVER INTL AP CLOUDY    47  44  90 S10       29.86F
DMNS CITY PARK   N/A     46  45  94 S5        29.86F
AURORA         PTCLDY    44  44 100 S8        29.89F
FRONT RANGE AP NOT AVBL
ERIE MUNI ARPT MOCLDY    47  46  93 S7        29.85F
BOULDER MUN AP MOCLDY    46  46 100 CALM      29.84F
CENTENNIAL     MOCLDY    45  44  97 SE7       29.90F
BROOMFIELD     MOCLDY    46  45  93 SW13      29.87F
FORT COLLINS   CLOUDY    48  45  87 S10       29.84F
LONGMONT       CLOUDY    50  46  88 S6        29.85F
$$

COZ041-046-047-076>085-087-088-300800-
...PIKES PEAK/PALMER DIVIDE AND SOUTHERN FOOTHILLS...

CITY           SKY/WX    TMP DP  RH WIND       PRES   REMARKS
COLO. SPRINGS  PTCLDY    46  38  73 N6        29.91F
A. F. ACADEMY  PTCLDY    52  28  39 VRB6      29.91F
ELLICOTT       NOT AVBL
FALCON         PTCLDY    43  33  67 W9        29.94S
FORT CARSON    PTCLDY    45  39  80 E8        29.89F
LIMON          CLOUDY    46  43  89 NW8       29.91F
MONUMENT HILL  PTCLDY    37  34  87 SW6       29.92F
TRINIDAD       CLEAR     52  32  46 SW12      29.96S
$$

COZ042>045-048>051-090-091-300800-
...NORTHEAST COLORADO...

CITY           SKY/WX    TMP DP  RH WIND       PRES   REMARKS
GREELEY ARPT   CLOUDY    48  41  76 SW8       29.83F
AKRON          CLOUDY    48  47  96 W18       29.83S
BURLINGTON     PTCLDY    52  45  77 W22G29    29.89R
WRAY           MOCLDY    52  50  93 W14G22    29.82R
STERLING       LGT RAIN  52  48  87 NW18G30   29.78F
HOLYOKE        LGT RAIN  54  50  87 W23       29.76R
FORT MORGAN    CLOUDY    48  44  85 NW10      29.81F
$$

COZ086-089-092>099-300800-
...SOUTHEAST COLORADO...

CITY           SKY/WX    TMP DP  RH WIND       PRES   REMARKS
PUEBLO         PTCLDY    51  42  71 NE7       29.89S
LA JUNTA       PTCLDY    51  43  74 MISG      29.89R
LAMAR          CLEAR     56  52  86 SW12      29.85R
SPRINGFIELD      N/A     56  55  97 SW10      29.91F
$$


USA.gov is the U.S. government's official web portal to all federal, state and local government web resources and services.